PICSAT (43132 NORAD) Tracking and Keplerian Element Data

This shows tracking and keplerian element data for the satellite.

Feedback or suggestion? Click here.




ElementValue
Catalog43132
NamePICSAT
Epoch Orbit12358
Epoch Day94.15127004
Epoch Year2020
RAAN165.9406
Inclination97.4529
Eccentricity0.0008474
Argument of Perigee326.6766
Mean Anonmoly33.3937
Mean Motion15.24228683
Decay Rate1.367E-05
L11 43132U 18004X 20094.15127004 .00001367 00000-0 58974-4 0 9995
L22 43132 97.4529 165.9406 0008474 326.6766 33.3937 15.24228683123589

Live tracking and technical data element details for PICSAT (NORAD 43132). PICSAT can be tracked NOW for your location showing map with azimuth and elevation plus other details from your city location.

Track the satellite on the map from your city or location and see movement details for azimuth, elevation, latitude, longitude, range, height, and movement on the map or in text.







IsCatalogInMostPopularTable: catalog: 43132, numindb: 563
Update: records affected: 1



GetName: 43132 PICSAT

Hit Count: updated at: Thu, 09 Apr 2020 17:49:39 GMT